Arlington, WA
on Wednesday, December 19, 2012

Wednesday
Previous Day Next Day
Daily Summary
 ActualAverageRecord
Temperature
Mean Temperature °F °F  
Max Temperature 41°F 43°F 57°F (2003)
Min Temperature 35°F 30°F 0°F (2008)
Degree Days
Heating Degree Days 27    
Moisture
Dew Point 34°F   
Average Humidity 84    
Maximum Humidity 93    
Minimum Humidity 70    
Precipitation
Precipitation 0.11 in in in ()
Wind
Wind Speed 13 mph   
Max Wind Speed 23 mph   
Max Gust Speed 32 mph   
Visibility 10 miles   
Events     
Averages and records for this station are not official NWS values.
Key: T is trace of precipitation, MM is missing value
Source: NWS Daily Summary
Seasonal Weather Averages
Time(PST)TemperatureDew PointHumidity Pressure Visibility Wind DirectionWind SpeedGust SpeedPrecipitationEvents Conditions
12:15 AM 35.6°F 30.2°F 81% 29.95 in 10.0 miles SE 12.7 mph - N/A   Overcast
12:35 AM 35.6°F 30.2°F 81% 29.95 in 10.0 miles SE 12.7 mph - N/A   Overcast
12:55 AM 35.6°F 28.4°F 75% 29.94 in 10.0 miles SE 12.7 mph 21.9 mph N/A   Overcast
1:15 AM 35.6°F 28.4°F 75% 29.94 in 10.0 miles SE 15.0 mph 19.6 mph N/A   Overcast
1:35 AM 35.6°F 28.4°F 75% 29.94 in 10.0 miles SE 12.7 mph - N/A   Overcast
1:55 AM 35.6°F 30.2°F 81% 29.93 in 10.0 miles SSE 17.3 mph 26.5 mph N/A   Mostly Cloudy
2:15 AM 35.6°F 30.2°F 81% 29.92 in 10.0 miles SE 17.3 mph 21.9 mph N/A   Overcast
2:35 AM 35.6°F 30.2°F 81% 29.90 in 10.0 miles SE 20.7 mph 26.5 mph N/A   Overcast
2:55 AM 35.6°F 30.2°F 81% 29.89 in 10.0 miles ESE 13.8 mph 18.4 mph N/A   Overcast
3:15 AM 35.6°F 30.2°F 81% 29.88 in 10.0 miles SE 12.7 mph 21.9 mph N/A   Overcast
3:35 AM 35.6°F 30.2°F 81% 29.87 in 10.0 miles ESE 10.4 mph - N/A   Overcast
3:55 AM 35.6°F 28.4°F 75% 29.86 in 10.0 miles SE 12.7 mph - N/A   Overcast
4:15 AM 35.6°F 28.4°F 75% 29.85 in 10.0 miles SE 10.4 mph - N/A   Overcast
4:35 AM 37.4°F 28.4°F 70% 29.85 in 10.0 miles SE 12.7 mph 18.4 mph N/A   Overcast
4:55 AM 35.6°F 28.4°F 75% 29.84 in 10.0 miles South 10.4 mph 21.9 mph N/A   Overcast
5:15 AM 35.6°F 28.4°F 75% 29.82 in 10.0 miles East 8.1 mph - N/A   Overcast
5:35 AM 35.6°F 28.4°F 75% 29.81 in 10.0 miles SE 10.4 mph - N/A   Overcast
5:55 AM 35.6°F 30.2°F 81% 29.80 in 10.0 miles ESE 9.2 mph - N/A   Overcast
6:15 AM 35.6°F 30.2°F 81% 29.80 in 10.0 miles SE 6.9 mph - N/A   Overcast
6:35 AM 35.6°F 30.2°F 81% 29.79 in 10.0 miles SE 11.5 mph - N/A   Overcast
6:55 AM 37.4°F 32.0°F 81% 29.78 in 10.0 miles SE 12.7 mph - N/A   Overcast
7:15 AM 37.4°F 32.0°F 81% 29.77 in 10.0 miles SE 10.4 mph - N/A   Overcast
7:35 AM 37.4°F 33.8°F 87% 29.76 in 10.0 miles ESE 11.5 mph 16.1 mph N/A   Overcast
7:55 AM 37.4°F 33.8°F 87% 29.76 in 10.0 miles SE 9.2 mph - N/A   Overcast
8:15 AM 37.4°F 33.8°F 87% 29.76 in 10.0 miles SSE 9.2 mph - N/A   Overcast
8:35 AM 37.4°F 33.8°F 87% 29.75 in 10.0 miles SE 13.8 mph - N/A   Overcast
8:55 AM 37.4°F 33.8°F 87% 29.75 in 10.0 miles SE 11.5 mph - N/A   Overcast
9:15 AM 37.4°F 33.8°F 87% 29.75 in 10.0 miles South 5.8 mph - N/A   Overcast
9:35 AM 37.4°F 33.8°F 87% 29.73 in 9.0 miles SSE 5.8 mph - N/A   Overcast
9:55 AM 37.4°F 33.8°F 87% 29.72 in 9.0 miles SE 8.1 mph - 0.01 in   Overcast
10:15 AM 37.4°F 33.8°F 87% 29.72 in 10.0 miles SE 10.4 mph 17.3 mph N/A   Overcast
10:35 AM 39.2°F 35.6°F 87% 29.71 in 10.0 miles SE 15.0 mph 19.6 mph N/A   Overcast
10:55 AM 39.2°F 35.6°F 87% 29.71 in 10.0 miles SE 12.7 mph 21.9 mph N/A   Overcast
11:15 AM 39.2°F 35.6°F 87% 29.70 in 10.0 miles SE 13.8 mph 20.7 mph 0.01 in   Overcast
11:35 AM 39.2°F 35.6°F 87% 29.69 in 10.0 miles SE 16.1 mph - 0.01 in   Overcast
11:55 AM 39.2°F 35.6°F 87% 29.67 in 10.0 miles ESE 13.8 mph 20.7 mph 0.01 in   Overcast
12:15 PM 41.0°F 35.6°F 81% 29.66 in 10.0 miles SE 15.0 mph 19.6 mph N/A   Overcast
12:35 PM 41.0°F 35.6°F 81% 29.66 in 10.0 miles SE 18.4 mph 25.3 mph 0.01 in   Overcast
12:55 PM 41.0°F 35.6°F 81% 29.66 in 10.0 miles SE 15.0 mph 20.7 mph 0.01 in   Overcast
1:15 PM 41.0°F 35.6°F 81% 29.66 in 10.0 miles SE 13.8 mph 21.9 mph N/A   Overcast
1:35 PM 41.0°F 35.6°F 81% 29.65 in 10.0 miles ESE 13.8 mph 19.6 mph N/A   Overcast
1:55 PM 41.0°F 37.4°F 87% 29.64 in 10.0 miles ESE 9.2 mph 16.1 mph 0.01 in   Overcast
2:15 PM 41.0°F 37.4°F 87% 29.65 in 10.0 miles SE 12.7 mph - N/A   Overcast
2:35 PM 41.0°F 35.6°F 81% 29.64 in 10.0 miles SE 17.3 mph 23.0 mph 0.02 in   Overcast
2:55 PM 41.0°F 35.6°F 81% 29.66 in 10.0 miles SSE 13.8 mph 23.0 mph 0.02 in   Overcast
3:15 PM 39.2°F 35.6°F 87% 29.67 in 10.0 miles SSE 12.7 mph - 0.01 in   Overcast
3:35 PM 39.2°F 35.6°F 87% 29.66 in 10.0 miles SE 15.0 mph 19.6 mph 0.01 in   Overcast
3:55 PM 39.2°F 35.6°F 87% 29.66 in 10.0 miles SE 16.1 mph - 0.01 in   Overcast
4:15 PM 39.2°F 35.6°F 87% 29.65 in 10.0 miles SE 17.3 mph 25.3 mph 0.02 in   Overcast
4:35 PM 39.2°F 35.6°F 87% 29.65 in 10.0 miles SE 13.8 mph 19.6 mph 0.03 in   Overcast
4:55 PM 37.4°F 35.6°F 93% 29.66 in 10.0 miles SE 15.0 mph - 0.03 in   Overcast
5:15 PM 37.4°F 35.6°F 93% 29.65 in 10.0 miles SE 12.7 mph - 0.01 in   Overcast
5:35 PM 37.4°F 33.8°F 87% 29.65 in 10.0 miles SE 13.8 mph - 0.01 in   Overcast
5:55 PM 39.2°F 35.6°F 87% 29.65 in 10.0 miles SE 21.9 mph 29.9 mph 0.01 in   Overcast
6:15 PM 39.2°F 33.8°F 81% 29.64 in 10.0 miles SE 21.9 mph 32.2 mph N/A   Overcast
6:35 PM 39.2°F 33.8°F 81% 29.64 in 10.0 miles SE 23.0 mph 32.2 mph N/A   Overcast
6:55 PM 39.2°F 35.6°F 87% 29.64 in 10.0 miles SE 23.0 mph 31.1 mph N/A   Overcast
7:15 PM 39.2°F 35.6°F 87% 29.64 in 10.0 miles SE 20.7 mph 27.6 mph N/A   Overcast
7:35 PM 39.2°F 35.6°F 87% 29.64 in 10.0 miles SE 21.9 mph 28.8 mph N/A   Overcast
7:55 PM 39.2°F 35.6°F 87% 29.63 in 10.0 miles SE 19.6 mph 27.6 mph N/A   Overcast
8:15 PM 39.2°F 35.6°F 87% 29.65 in 10.0 miles SSE 15.0 mph 25.3 mph N/A   Overcast
8:35 PM 39.2°F 35.6°F 87% 29.66 in 10.0 miles SSE 12.7 mph 16.1 mph N/A   Overcast
8:55 PM 39.2°F 35.6°F 87% 29.64 in 10.0 miles SE 16.1 mph 21.9 mph N/A   Overcast
9:15 PM 39.2°F 35.6°F 87% 29.64 in 10.0 miles SE 17.3 mph 24.2 mph N/A   Overcast
9:35 PM 39.2°F 35.6°F 87% 29.63 in 10.0 miles SE 19.6 mph 24.2 mph N/A   Overcast
9:55 PM 39.2°F 35.6°F 87% 29.64 in 10.0 miles SE 15.0 mph - N/A   Overcast
10:15 PM 39.2°F 35.6°F 87% 29.63 in 10.0 miles SE 15.0 mph 18.4 mph N/A   Overcast
10:35 PM 41.0°F 35.6°F 81% 29.63 in 10.0 miles ESE 10.4 mph 20.7 mph N/A   Overcast
10:55 PM 41.0°F 35.6°F 81% 29.62 in 10.0 miles ESE 9.2 mph - N/A   Overcast
11:15 PM 39.2°F 35.6°F 87% 29.60 in 10.0 miles Calm Calm - N/A   Overcast
11:35 PM 39.2°F 35.6°F 87% 29.61 in 10.0 miles South 4.6 mph - N/A   Overcast
11:55 PM 39.2°F 35.6°F 87% 29.59 in 10.0 miles Calm Calm - N/A   Overcast
Moon Phase
Dec. 19 Dec. 20 Dec. 28 Jan. 04 Jan. 11
Sunrise:07:55 AM (PST) Moon Rise:11:36 AM (PST)12/19
Sunset:04:16 PM (PST) Moon Set:No Moon Set/

Copyright © 2014 The Weather Underground, Inc.